Time,TemperatureF,DewpointF,PressureIn,WindDirection,WindDirectionDegrees,WindSpeedMPH,WindSpeedGustMPH,Humidity,HourlyPrecipIn,Conditions,Clouds,dailyrainin,SoftwareType,DateUTC
2013-09-15 00:00:00,47.5,44.5,29.91,WNW,293,0.0,0.0,89,0.00,,,0.00,WUHU216HW,2013-09-14 23:00:00,
2013-09-15 00:05:00,47.5,44.5,29.91,WNW,293,0.0,0.0,89,0.00,,,0.00,WUHU216HW,2013-09-14 23:05:00,
2013-09-15 00:10:00,47.5,44.8,29.91,WNW,293,0.0,0.0,90,0.00,,,0.00,WUHU216HW,2013-09-14 23:10:00,
2013-09-15 00:15:00,47.3,44.6,29.91,WNW,293,0.0,0.0,90,0.00,,,0.00,WUHU216HW,2013-09-14 23:15:00,
2013-09-15 00:20:00,47.3,44.6,29.91,WNW,293,0.0,0.0,90,0.00,,,0.00,WUHU216HW,2013-09-14 23:20:00,
2013-09-15 00:25:00,47.3,44.6,29.91,WNW,293,0.0,0.0,90,0.00,,,0.00,WUHU216HW,2013-09-14 23:25:00,
2013-09-15 00:30:00,47.3,44.6,29.91,WNW,293,0.0,0.0,90,0.00,,,0.00,WUHU216HW,2013-09-14 23:30:00,
2013-09-15 00:35:00,47.5,45.1,29.91,WNW,293,0.0,0.0,91,0.00,,,0.00,WUHU216HW,2013-09-14 23:35:00,
2013-09-15 00:40:00,47.5,45.1,29.91,WNW,293,0.0,0.0,91,0.00,,,0.00,WUHU216HW,2013-09-14 23:40:00,
2013-09-15 00:45:00,47.5,45.1,29.91,WNW,293,0.0,0.0,91,0.00,,,0.00,WUHU216HW,2013-09-14 23:45:00,
2013-09-15 00:50:00,47.5,45.1,29.91,WNW,293,0.0,0.0,91,0.00,,,0.00,WUHU216HW,2013-09-14 23:50:00,
2013-09-15 00:55:00,47.5,45.4,29.91,WNW,293,0.0,0.0,92,0.00,,,0.00,WUHU216HW,2013-09-14 23:55:00,
2013-09-15 01:00:00,47.5,45.4,29.91,WNW,293,0.0,0.0,92,0.00,,,0.00,WUHU216HW,2013-09-15 00:00:00,
2013-09-15 01:05:00,47.5,45.4,29.91,WNW,293,0.0,0.0,92,0.00,,,0.00,WUHU216HW,2013-09-15 00:05:00,
2013-09-15 01:10:00,47.3,45.2,29.91,WNW,293,0.0,0.0,92,0.00,,,0.00,WUHU216HW,2013-09-15 00:10:00,
2013-09-15 01:15:00,47.3,45.2,29.91,WNW,293,0.0,0.0,92,0.00,,,0.00,WUHU216HW,2013-09-15 00:15:00,
2013-09-15 01:20:00,47.3,45.2,29.91,WNW,293,0.0,0.0,92,0.00,,,0.00,WUHU216HW,2013-09-15 00:20:00,
2013-09-15 01:25:00,47.2,45.0,29.91,WNW,293,0.0,0.0,92,0.00,,,0.00,WUHU216HW,2013-09-15 00:25:00,
2013-09-15 01:30:00,47.2,45.0,29.91,WNW,293,0.0,0.0,92,0.00,,,0.00,WUHU216HW,2013-09-15 00:30:00,
2013-09-15 01:35:00,47.0,44.8,29.90,WNW,293,0.0,0.0,92,0.00,,,0.00,WUHU216HW,2013-09-15 00:35:00,
2013-09-15 01:40:00,47.0,44.8,29.91,WNW,293,0.0,0.0,92,0.00,,,0.00,WUHU216HW,2013-09-15 00:40:00,
2013-09-15 01:45:00,47.0,44.8,29.91,WNW,293,0.0,0.0,92,0.00,,,0.00,WUHU216HW,2013-09-15 00:45:00,
2013-09-15 01:50:00,47.0,45.1,29.91,WNW,293,0.0,0.0,93,0.00,,,0.00,WUHU216HW,2013-09-15 00:50:00,
2013-09-15 01:55:00,46.8,44.9,29.90,WNW,293,0.2,0.2,93,0.00,,,0.00,WUHU216HW,2013-09-15 00:55:00,
2013-09-15 02:00:00,46.8,44.9,29.90,WNW,293,0.0,0.2,93,0.00,,,0.00,WUHU216HW,2013-09-15 01:00:00,
2013-09-15 02:05:00,46.8,44.9,29.90,WNW,293,0.4,0.4,93,0.00,,,0.00,WUHU216HW,2013-09-15 01:05:00,
2013-09-15 02:10:00,46.6,44.7,29.89,WNW,293,0.4,0.4,93,0.00,,,0.00,WUHU216HW,2013-09-15 01:10:00,
2013-09-15 02:15:00,46.6,44.7,29.90,WNW,293,0.4,0.4,93,0.00,,,0.00,WUHU216HW,2013-09-15 01:15:00,
2013-09-15 02:20:00,46.4,44.6,29.89,WNW,293,0.0,0.4,93,0.00,,,0.00,WUHU216HW,2013-09-15 01:20:00,
2013-09-15 02:25:00,46.4,44.6,29.89,WNW,293,0.0,0.4,93,0.00,,,0.00,WUHU216HW,2013-09-15 01:25:00,
2013-09-15 02:30:00,46.4,44.6,29.89,WNW,293,0.0,0.0,93,0.00,,,0.00,WUHU216HW,2013-09-15 01:30:00,
2013-09-15 02:35:00,46.4,44.6,29.89,WNW,293,0.0,0.0,93,0.00,,,0.00,WUHU216HW,2013-09-15 01:35:00,
2013-09-15 02:40:00,46.3,44.4,29.89,WNW,293,0.2,0.2,93,0.00,,,0.00,WUHU216HW,2013-09-15 01:40:00,
2013-09-15 02:45:00,46.1,44.2,29.89,WNW,293,0.0,0.2,93,0.00,,,0.00,WUHU216HW,2013-09-15 01:45:00,
2013-09-15 02:50:00,46.1,44.2,29.89,WNW,293,0.0,0.2,93,0.00,,,0.00,WUHU216HW,2013-09-15 01:50:00,
2013-09-15 02:55:00,45.9,44.0,29.88,WNW,293,0.0,0.0,93,0.00,,,0.00,WUHU216HW,2013-09-15 01:55:00,
2013-09-15 03:00:00,45.7,43.6,29.88,WNW,293,0.0,0.0,92,0.00,,,0.00,WUHU216HW,2013-09-15 02:00:00,
2013-09-15 03:05:00,45.7,43.6,29.88,WNW,293,0.0,0.0,92,0.00,,,0.00,WUHU216HW,2013-09-15 02:05:00,
2013-09-15 03:10:00,45.7,43.6,29.88,WNW,293,0.0,0.0,92,0.00,,,0.00,WUHU216HW,2013-09-15 02:10:00,
2013-09-15 03:15:00,45.7,43.6,29.88,WNW,293,0.0,0.0,92,0.00,,,0.00,WUHU216HW,2013-09-15 02:15:00,
2013-09-15 03:20:00,45.5,43.4,29.87,WNW,293,0.0,0.0,92,0.00,,,0.00,WUHU216HW,2013-09-15 02:20:00,
2013-09-15 03:25:00,45.4,43.2,29.87,WNW,293,0.0,0.0,92,0.00,,,0.00,WUHU216HW,2013-09-15 02:25:00,
2013-09-15 03:30:00,45.4,43.2,29.88,WNW,293,0.0,0.0,92,0.00,,,0.00,WUHU216HW,2013-09-15 02:30:00,
2013-09-15 03:35:00,45.4,43.2,29.87,WNW,293,0.0,0.0,92,0.00,,,0.00,WUHU216HW,2013-09-15 02:35:00,
2013-09-15 03:40:00,45.2,43.0,29.87,WNW,293,0.0,0.0,92,0.00,,,0.00,WUHU216HW,2013-09-15 02:40:00,
2013-09-15 03:45:00,45.2,43.0,29.87,WNW,293,0.0,0.0,92,0.00,,,0.00,WUHU216HW,2013-09-15 02:45:00,
2013-09-15 03:50:00,45.2,43.0,29.86,WNW,293,0.0,0.0,92,0.00,,,0.00,WUHU216HW,2013-09-15 02:50:00,
2013-09-15 03:55:00,45.2,43.0,29.87,WNW,293,0.0,0.0,92,0.00,,,0.00,WUHU216HW,2013-09-15 02:55:00,
2013-09-15 04:00:00,45.2,43.0,29.86,WNW,293,0.0,0.2,92,0.00,,,0.00,WUHU216HW,2013-09-15 03:00:00,
2013-09-15 04:05:00,45.2,43.0,29.86,WNW,293,0.0,0.2,92,0.00,,,0.00,WUHU216HW,2013-09-15 03:05:00,
2013-09-15 04:10:00,45.0,43.1,29.86,WNW,293,0.0,0.2,93,0.00,,,0.00,WUHU216HW,2013-09-15 03:10:00,
2013-09-15 04:15:00,45.0,42.8,29.86,WNW,293,0.0,0.2,92,0.00,,,0.00,WUHU216HW,2013-09-15 03:15:00,
2013-09-15 04:20:00,45.0,42.8,29.86,WNW,293,0.0,0.0,92,0.00,,,0.00,WUHU216HW,2013-09-15 03:20:00,
2013-09-15 04:25:00,45.0,43.1,29.85,WNW,293,0.0,0.0,93,0.00,,,0.00,WUHU216HW,2013-09-15 03:25:00,
2013-09-15 04:30:00,45.0,43.1,29.85,WNW,293,0.0,0.0,93,0.00,,,0.00,WUHU216HW,2013-09-15 03:30:00,
2013-09-15 04:35:00,45.0,43.1,29.85,WNW,293,0.0,0.0,93,0.00,,,0.00,WUHU216HW,2013-09-15 03:35:00,
2013-09-15 04:40:00,44.8,42.9,29.85,West,270,0.0,0.2,93,0.00,,,0.00,WUHU216HW,2013-09-15 03:40:00,
2013-09-15 04:45:00,44.8,42.9,29.85,West,270,0.0,0.2,93,0.00,,,0.00,WUHU216HW,2013-09-15 03:45:00,
2013-09-15 04:50:00,44.8,42.9,29.84,West,270,0.0,0.2,93,0.00,,,0.00,WUHU216HW,2013-09-15 03:50:00,
2013-09-15 04:55:00,44.6,42.8,29.84,West,270,0.0,0.2,93,0.00,,,0.00,WUHU216HW,2013-09-15 03:55:00,
2013-09-15 04:59:00,44.6,42.8,29.84,West,270,0.0,0.0,93,0.00,,,0.00,WUHU216HW,2013-09-15 03:59:00,
2013-09-15 05:01:00,44.6,42.8,29.84,West,270,0.0,0.0,93,0.00,,,0.00,WUHU216HW,2013-09-15 04:01:00,
2013-09-15 05:02:00,44.6,42.8,29.84,West,270,0.0,0.0,93,0.00,,,0.00,WUHU216HW,2013-09-15 04:02:00,
2013-09-15 05:07:00,44.6,42.8,29.84,West,270,0.0,0.2,93,0.00,,,0.00,WUHU216HW,2013-09-15 04:07:00,
2013-09-15 05:12:00,44.5,42.6,29.84,West,270,0.0,0.2,93,0.00,,,0.00,WUHU216HW,2013-09-15 04:12:00,
2013-09-15 05:17:00,44.5,42.6,29.84,West,270,0.0,0.0,93,0.00,,,0.00,WUHU216HW,2013-09-15 04:17:00,
2013-09-15 05:22:00,44.3,42.4,29.84,West,270,0.0,0.0,93,0.00,,,0.00,WUHU216HW,2013-09-15 04:22:00,
2013-09-15 05:27:00,44.3,42.4,29.84,West,270,0.0,0.0,93,0.00,,,0.00,WUHU216HW,2013-09-15 04:27:00,
2013-09-15 05:32:00,44.3,42.4,29.84,West,270,0.0,0.0,93,0.00,,,0.00,WUHU216HW,2013-09-15 04:32:00,
2013-09-15 05:37:00,44.1,42.2,29.84,West,270,0.0,0.0,93,0.00,,,0.00,WUHU216HW,2013-09-15 04:37:00,
2013-09-15 05:42:00,43.9,42.0,29.84,West,270,0.0,0.0,93,0.00,,,0.00,WUHU216HW,2013-09-15 04:42:00,
2013-09-15 05:47:00,43.7,41.9,29.84,West,270,0.0,0.0,93,0.00,,,0.00,WUHU216HW,2013-09-15 04:47:00,
2013-09-15 05:52:00,43.6,41.7,29.83,West,270,0.0,0.0,93,0.00,,,0.00,WUHU216HW,2013-09-15 04:52:00,
2013-09-15 05:57:00,43.6,41.7,29.83,West,270,0.0,0.0,93,0.00,,,0.00,WUHU216HW,2013-09-15 04:57:00,
2013-09-15 06:02:00,43.4,41.5,29.84,West,270,0.0,0.0,93,0.00,,,0.00,WUHU216HW,2013-09-15 05:02:00,
2013-09-15 06:07:00,43.4,41.5,29.83,West,270,0.0,0.0,93,0.00,,,0.00,WUHU216HW,2013-09-15 05:07:00,
2013-09-15 06:12:00,43.2,41.3,29.83,West,270,0.0,0.0,93,0.00,,,0.00,WUHU216HW,2013-09-15 05:12:00,
2013-09-15 06:17:00,43.2,41.3,29.83,West,270,0.0,0.0,93,0.00,,,0.00,WUHU216HW,2013-09-15 05:17:00,
2013-09-15 06:22:00,43.0,41.1,29.83,West,270,0.0,0.0,93,0.00,,,0.00,WUHU216HW,2013-09-15 05:22:00,
2013-09-15 06:27:00,43.0,41.1,29.83,West,270,0.0,0.0,93,0.00,,,0.00,WUHU216HW,2013-09-15 05:27:00,
2013-09-15 06:32:00,42.8,41.0,29.82,West,270,0.0,0.0,93,0.00,,,0.00,WUHU216HW,2013-09-15 05:32:00,
2013-09-15 06:37:00,42.8,41.0,29.82,West,270,0.0,0.0,93,0.00,,,0.00,WUHU216HW,2013-09-15 05:37:00,
2013-09-15 06:42:00,42.8,41.0,29.82,West,270,0.0,0.0,93,0.00,,,0.00,WUHU216HW,2013-09-15 05:42:00,
2013-09-15 06:47:00,42.7,40.8,29.81,West,270,0.0,0.0,93,0.00,,,0.00,WUHU216HW,2013-09-15 05:47:00,
2013-09-15 06:52:00,42.7,40.8,29.81,West,270,0.0,0.0,93,0.00,,,0.00,WUHU216HW,2013-09-15 05:52:00,
2013-09-15 06:57:00,42.7,40.8,29.81,West,270,0.0,0.0,93,0.00,,,0.00,WUHU216HW,2013-09-15 05:57:00,
2013-09-15 07:02:00,42.8,41.0,29.81,West,270,0.0,0.0,93,0.00,,,0.00,WUHU216HW,2013-09-15 06:02:00,
2013-09-15 07:07:00,42.8,41.0,29.81,West,270,0.0,0.0,93,0.00,,,0.00,WUHU216HW,2013-09-15 06:07:00,
2013-09-15 07:12:00,42.8,41.0,29.81,West,270,0.0,0.0,93,0.00,,,0.00,WUHU216HW,2013-09-15 06:12:00,
2013-09-15 07:17:00,43.0,41.1,29.81,West,270,0.0,0.0,93,0.00,,,0.00,WUHU216HW,2013-09-15 06:17:00,
2013-09-15 07:22:00,43.0,41.1,29.81,West,270,0.0,0.0,93,0.00,,,0.00,WUHU216HW,2013-09-15 06:22:00,
2013-09-15 07:27:00,43.2,41.3,29.81,West,270,0.0,0.0,93,0.00,,,0.00,WUHU216HW,2013-09-15 06:27:00,
2013-09-15 07:32:00,43.6,41.7,29.81,West,270,0.0,0.0,93,0.00,,,0.00,WUHU216HW,2013-09-15 06:32:00,
2013-09-15 07:37:00,43.9,42.0,29.80,West,270,0.0,0.0,93,0.00,,,0.00,WUHU216HW,2013-09-15 06:37:00,
2013-09-15 07:42:00,44.3,42.4,29.81,West,270,0.0,0.0,93,0.00,,,0.00,WUHU216HW,2013-09-15 06:42:00,
2013-09-15 07:47:00,44.5,42.6,29.81,West,270,0.0,0.2,93,0.00,,,0.00,WUHU216HW,2013-09-15 06:47:00,
2013-09-15 07:52:00,44.8,42.9,29.80,West,270,0.0,0.4,93,0.00,,,0.00,WUHU216HW,2013-09-15 06:52:00,
2013-09-15 07:57:00,45.0,43.1,29.80,West,270,0.0,0.4,93,0.00,,,0.00,WUHU216HW,2013-09-15 06:57:00,
2013-09-15 08:02:00,45.2,43.3,29.79,West,270,0.0,0.4,93,0.00,,,0.00,WUHU216HW,2013-09-15 07:02:00,
2013-09-15 08:07:00,45.4,43.5,29.79,West,270,0.0,0.4,93,0.00,,,0.00,WUHU216HW,2013-09-15 07:07:00,
2013-09-15 08:12:00,45.7,43.8,29.80,West,270,0.0,0.4,93,0.00,,,0.00,WUHU216HW,2013-09-15 07:12:00,
2013-09-15 08:17:00,45.9,44.3,29.79,West,270,0.0,0.4,94,0.00,,,0.00,WUHU216HW,2013-09-15 07:17:00,
2013-09-15 08:22:00,46.4,45.1,29.79,SSE,158,1.1,1.1,95,0.00,,,0.00,WUHU216HW,2013-09-15 07:22:00,
2013-09-15 08:27:00,46.8,45.5,29.79,SSW,203,0.2,1.1,95,0.00,,,0.00,WUHU216HW,2013-09-15 07:27:00,
2013-09-15 08:32:00,47.2,45.8,29.78,South,180,1.3,1.3,95,0.00,,,0.00,WUHU216HW,2013-09-15 07:32:00,
2013-09-15 08:37:00,47.5,46.2,29.78,SW,225,0.4,1.3,95,0.00,,,0.00,WUHU216HW,2013-09-15 07:37:00,
2013-09-15 08:42:00,47.9,46.3,29.78,SSW,203,0.2,1.3,94,0.00,,,0.00,WUHU216HW,2013-09-15 07:42:00,
2013-09-15 08:47:00,48.1,46.4,29.78,SSW,203,0.2,1.1,94,0.00,,,0.00,WUHU216HW,2013-09-15 07:47:00,
2013-09-15 08:52:00,48.8,47.2,29.77,South,180,1.8,2.0,94,0.00,,,0.00,WUHU216HW,2013-09-15 07:52:00,
2013-09-15 08:57:00,49.3,47.6,29.77,SSE,158,0.0,4.0,94,0.00,,,0.00,WUHU216HW,2013-09-15 07:57:00,
2013-09-15 09:02:00,49.9,48.2,29.77,SSE,158,1.8,4.5,94,0.00,,,0.00,WUHU216HW,2013-09-15 08:02:00,
2013-09-15 09:07:00,50.4,48.1,29.77,South,180,1.1,6.0,92,0.00,,,0.00,WUHU216HW,2013-09-15 08:07:00,
2013-09-15 09:12:00,50.9,48.3,29.76,SSW,203,1.6,6.0,91,0.00,,,0.00,WUHU216HW,2013-09-15 08:12:00,
2013-09-15 09:17:00,51.7,48.8,29.76,West,270,0.7,4.5,90,0.00,,,0.00,WUHU216HW,2013-09-15 08:17:00,
2013-09-15 09:22:00,52.4,49.5,29.76,SSE,158,1.8,4.5,90,0.00,,,0.00,WUHU216HW,2013-09-15 08:22:00,
2013-09-15 09:27:00,52.9,49.4,29.76,SW,225,0.9,6.9,88,0.00,,,0.00,WUHU216HW,2013-09-15 08:27:00,
2013-09-15 09:32:00,53.1,49.3,29.76,NNW,338,1.1,9.2,87,0.00,,,0.00,WUHU216HW,2013-09-15 08:32:00,
2013-09-15 09:37:00,53.3,49.5,29.75,SSW,203,4.5,11.0,87,0.00,,,0.00,WUHU216HW,2013-09-15 08:37:00,
2013-09-15 09:42:00,53.8,49.7,29.75,SSW,203,3.6,11.0,86,0.00,,,0.00,WUHU216HW,2013-09-15 08:42:00,
2013-09-15 09:47:00,54.4,50.0,29.75,WSW,248,6.9,9.4,85,0.00,,,0.00,WUHU216HW,2013-09-15 08:47:00,
2013-09-15 09:52:00,54.9,49.5,29.75,WNW,293,1.8,7.4,82,0.00,,,0.00,WUHU216HW,2013-09-15 08:52:00,
2013-09-15 09:57:00,55.3,49.8,29.74,South,180,5.4,8.1,82,0.00,,,0.00,WUHU216HW,2013-09-15 08:57:00,
2013-09-15 10:02:00,55.6,49.9,29.74,South,180,3.6,8.1,81,0.00,,,0.00,WUHU216HW,2013-09-15 09:02:00,
2013-09-15 10:07:00,55.8,50.1,29.74,SSE,158,8.5,9.6,81,0.00,,,0.00,WUHU216HW,2013-09-15 09:07:00,
2013-09-15 10:12:00,56.2,50.4,29.74,SSW,203,3.4,9.6,81,0.00,,,0.00,WUHU216HW,2013-09-15 09:12:00,
2013-09-15 10:17:00,56.9,50.4,29.74,SSW,203,4.0,8.7,79,0.00,,,0.00,WUHU216HW,2013-09-15 09:17:00,
2013-09-15 10:22:00,57.1,50.6,29.73,SSW,203,4.0,11.4,79,0.00,,,0.00,WUHU216HW,2013-09-15 09:22:00,
2013-09-15 10:27:00,57.2,49.7,29.73,ESE,113,4.0,11.4,76,0.00,,,0.00,WUHU216HW,2013-09-15 09:27:00,
2013-09-15 10:32:00,57.1,48.4,29.73,South,180,5.4,8.3,73,0.00,,,0.00,WUHU216HW,2013-09-15 09:32:00,
2013-09-15 10:37:00,56.9,46.5,29.73,NW,315,6.0,7.8,68,0.00,,,0.00,WUHU216HW,2013-09-15 09:37:00,
2013-09-15 10:42:00,56.7,47.4,29.73,SW,225,1.1,7.8,71,0.00,,,0.00,WUHU216HW,2013-09-15 09:42:00,
2013-09-15 10:47:00,56.5,46.9,29.73,West,270,2.0,6.7,70,0.00,,,0.00,WUHU216HW,2013-09-15 09:47:00,
2013-09-15 10:52:00,56.5,47.3,29.72,South,180,3.4,6.3,71,0.00,,,0.00,WUHU216HW,2013-09-15 09:52:00,
2013-09-15 10:57:00,56.5,46.4,29.72,South,180,4.0,8.3,69,0.00,,,0.00,WUHU216HW,2013-09-15 09:57:00,
2013-09-15 11:02:00,56.5,46.1,29.72,SSE,158,2.7,8.3,68,0.00,,,0.00,WUHU216HW,2013-09-15 10:02:00,
2013-09-15 11:07:00,56.5,46.4,29.71,WSW,248,2.0,6.3,69,0.00,,,0.00,WUHU216HW,2013-09-15 10:07:00,
2013-09-15 11:12:00,56.5,46.1,29.71,SW,225,2.0,7.6,68,0.00,,,0.00,WUHU216HW,2013-09-15 10:12:00,
2013-09-15 11:17:00,56.3,46.3,29.70,SSW,203,3.8,7.6,69,0.00,,,0.00,WUHU216HW,2013-09-15 10:17:00,
2013-09-15 11:22:00,56.0,46.4,29.70,South,180,3.4,7.6,70,0.00,,,0.00,WUHU216HW,2013-09-15 10:22:00,
2013-09-15 11:27:00,55.8,46.3,29.70,SW,225,3.4,8.7,70,0.00,,,0.00,WUHU216HW,2013-09-15 10:27:00,
2013-09-15 11:32:00,55.6,46.5,29.70,SSE,158,3.6,8.7,71,0.00,,,0.00,WUHU216HW,2013-09-15 10:32:00,
2013-09-15 11:37:00,55.6,46.7,29.70,South,180,2.7,7.4,72,0.00,,,0.00,WUHU216HW,2013-09-15 10:37:00,
2013-09-15 11:42:00,55.6,46.7,29.69,South,180,3.1,6.3,72,0.00,,,0.00,WUHU216HW,2013-09-15 10:42:00,
2013-09-15 11:47:00,55.6,46.7,29.70,SW,225,4.0,8.9,72,0.00,,,0.00,WUHU216HW,2013-09-15 10:47:00,
2013-09-15 11:52:00,55.4,46.9,29.68,South,180,4.7,8.9,73,0.00,,,0.00,WUHU216HW,2013-09-15 10:52:00,
2013-09-15 11:57:00,55.4,46.9,29.69,SSW,203,4.9,8.3,73,0.00,,,0.00,WUHU216HW,2013-09-15 10:57:00,
2013-09-15 12:02:00,55.3,47.1,29.68,SSE,158,4.7,8.7,74,0.00,,,0.00,WUHU216HW,2013-09-15 11:02:00,
2013-09-15 12:07:00,55.4,47.6,29.67,South,180,6.5,8.7,75,0.00,,,0.00,WUHU216HW,2013-09-15 11:07:00,
2013-09-15 12:12:00,55.3,47.4,29.67,SSW,203,1.3,8.3,75,0.00,,,0.00,WUHU216HW,2013-09-15 11:12:00,
2013-09-15 12:17:00,55.4,48.0,29.67,South,180,5.1,8.3,76,0.00,,,0.00,WUHU216HW,2013-09-15 11:17:00,
2013-09-15 12:22:00,55.4,48.0,29.67,SE,135,4.0,6.0,76,0.00,,,0.00,WUHU216HW,2013-09-15 11:22:00,
2013-09-15 12:27:00,55.3,48.2,29.66,SSE,158,3.8,7.6,77,0.00,,,0.00,WUHU216HW,2013-09-15 11:27:00,
2013-09-15 12:32:00,55.1,48.0,29.66,South,180,4.5,7.6,77,0.00,,,0.00,WUHU216HW,2013-09-15 11:32:00,
2013-09-15 12:37:00,55.4,48.3,29.66,SSW,203,4.5,8.3,77,0.00,,,0.00,WUHU216HW,2013-09-15 11:37:00,
2013-09-15 12:42:00,55.4,48.6,29.65,WNW,293,0.4,8.3,78,0.00,,,0.00,WUHU216HW,2013-09-15 11:42:00,
2013-09-15 12:47:00,55.4,48.6,29.65,WNW,293,4.9,7.2,78,0.00,,,0.00,WUHU216HW,2013-09-15 11:47:00,
2013-09-15 12:52:00,55.6,48.8,29.65,SW,225,1.8,11.9,78,0.00,,,0.00,WUHU216HW,2013-09-15 11:52:00,
2013-09-15 12:57:00,55.6,48.8,29.65,SW,225,2.5,11.9,78,0.00,,,0.00,WUHU216HW,2013-09-15 11:57:00,
2013-09-15 13:02:00,55.6,48.8,29.65,SSE,158,1.6,6.3,78,0.00,,,0.00,WUHU216HW,2013-09-15 12:02:00,
2013-09-15 13:07:00,55.8,49.0,29.64,South,180,4.5,8.5,78,0.00,,,0.00,WUHU216HW,2013-09-15 12:07:00,
2013-09-15 13:12:00,55.8,49.0,29.64,SSW,203,4.7,9.2,78,0.00,,,0.00,WUHU216HW,2013-09-15 12:12:00,
2013-09-15 13:17:00,56.0,48.8,29.63,WSW,248,4.7,9.2,77,0.00,,,0.00,WUHU216HW,2013-09-15 12:17:00,
2013-09-15 13:22:00,56.2,49.0,29.63,South,180,3.6,8.9,77,0.00,,,0.00,WUHU216HW,2013-09-15 12:22:00,
2013-09-15 13:27:00,56.3,49.5,29.63,East,90,2.9,8.5,78,0.00,,,0.00,WUHU216HW,2013-09-15 12:27:00,
2013-09-15 13:32:00,56.5,49.7,29.62,NNE,23,3.4,8.5,78,0.00,,,0.00,WUHU216HW,2013-09-15 12:32:00,
2013-09-15 13:37:00,56.5,49.7,29.62,SSW,203,7.4,8.5,78,0.00,,,0.00,WUHU216HW,2013-09-15 12:37:00,
2013-09-15 13:42:00,56.7,49.9,29.61,South,180,4.3,9.6,78,0.00,,,0.00,WUHU216HW,2013-09-15 12:42:00,
2013-09-15 13:47:00,57.1,50.6,29.61,SE,135,3.4,9.6,79,0.00,,,0.00,WUHU216HW,2013-09-15 12:47:00,
2013-09-15 13:52:00,57.4,50.6,29.60,SW,225,5.6,8.5,78,0.00,,,0.00,WUHU216HW,2013-09-15 12:52:00,
2013-09-15 13:57:00,57.8,50.2,29.60,SSW,203,11.2,11.2,76,0.00,,,0.00,WUHU216HW,2013-09-15 12:57:00,
2013-09-15 14:02:00,57.6,50.4,29.60,South,180,6.9,11.2,77,0.00,,,0.00,WUHU216HW,2013-09-15 13:02:00,
2013-09-15 14:07:00,57.4,50.2,29.60,West,270,8.1,13.2,77,0.00,,,0.00,WUHU216HW,2013-09-15 13:07:00,
2013-09-15 14:12:00,57.1,50.2,29.59,South,180,5.1,13.6,78,0.00,,,0.00,WUHU216HW,2013-09-15 13:12:00,
2013-09-15 14:17:00,57.1,50.6,29.59,South,180,4.5,13.6,79,0.00,,,0.00,WUHU216HW,2013-09-15 13:17:00,
2013-09-15 14:22:00,56.9,50.4,29.58,SSE,158,3.8,10.7,79,0.00,,,0.00,WUHU216HW,2013-09-15 13:22:00,
2013-09-15 14:27:00,57.1,50.6,29.58,SSE,158,8.5,10.7,79,0.00,,,0.00,WUHU216HW,2013-09-15 13:27:00,
2013-09-15 14:32:00,57.1,50.9,29.58,SW,225,2.5,8.5,80,0.00,,,0.00,WUHU216HW,2013-09-15 13:32:00,
2013-09-15 14:37:00,57.1,51.6,29.58,South,180,8.5,8.5,82,0.00,,,0.00,WUHU216HW,2013-09-15 13:37:00,
2013-09-15 14:42:00,56.9,52.0,29.57,SSW,203,4.5,8.5,84,0.00,,,0.00,WUHU216HW,2013-09-15 13:42:00,
2013-09-15 14:47:00,56.7,51.8,29.57,SE,135,5.4,8.5,84,0.00,,,0.00,WUHU216HW,2013-09-15 13:47:00,
2013-09-15 14:52:00,56.5,51.7,29.56,South,180,2.0,9.6,84,0.00,,,0.00,WUHU216HW,2013-09-15 13:52:00,
2013-09-15 14:57:00,56.5,52.0,29.56,South,180,7.6,9.6,85,0.00,,,0.00,WUHU216HW,2013-09-15 13:57:00,
2013-09-15 15:02:00,56.3,52.2,29.55,South,180,3.1,8.9,86,0.00,,,0.00,WUHU216HW,2013-09-15 14:02:00,
2013-09-15 15:07:00,56.3,52.5,29.55,SW,225,2.7,8.9,87,0.00,,,0.00,WUHU216HW,2013-09-15 14:07:00,
2013-09-15 15:12:00,56.3,52.8,29.54,South,180,5.4,7.4,88,0.00,,,0.00,WUHU216HW,2013-09-15 14:12:00,
2013-09-15 15:17:00,56.5,53.3,29.53,SSW,203,1.6,7.4,89,0.00,,,0.00,WUHU216HW,2013-09-15 14:17:00,
2013-09-15 15:22:00,56.9,53.4,29.52,ESE,113,0.4,5.8,88,0.00,,,0.00,WUHU216HW,2013-09-15 14:22:00,
2013-09-15 15:27:00,57.1,53.6,29.52,SSE,158,6.3,7.2,88,0.00,,,0.00,WUHU216HW,2013-09-15 14:27:00,
2013-09-15 15:32:00,57.2,53.4,29.52,South,180,8.9,8.9,87,0.00,,,0.00,WUHU216HW,2013-09-15 14:32:00,
2013-09-15 15:37:00,57.2,53.4,29.51,North,0,3.8,8.9,87,0.00,,,0.00,WUHU216HW,2013-09-15 14:37:00,
2013-09-15 15:42:00,57.2,53.1,29.51,SW,225,4.7,8.9,86,0.00,,,0.00,WUHU216HW,2013-09-15 14:42:00,
2013-09-15 15:47:00,57.2,53.4,29.51,SE,135,3.1,8.3,87,0.00,,,0.00,WUHU216HW,2013-09-15 14:47:00,
2013-09-15 15:52:00,57.2,53.1,29.50,South,180,3.4,8.3,86,0.00,,,0.00,WUHU216HW,2013-09-15 14:52:00,
2013-09-15 15:57:00,57.4,53.6,29.50,SSW,203,5.4,10.5,87,0.00,,,0.00,WUHU216HW,2013-09-15 14:57:00,
2013-09-15 16:02:00,57.4,53.6,29.49,ESE,113,1.3,10.5,87,0.00,,,0.00,WUHU216HW,2013-09-15 15:02:00,
2013-09-15 16:07:00,57.4,53.6,29.49,SSE,158,3.6,10.5,87,0.00,,,0.00,WUHU216HW,2013-09-15 15:07:00,
2013-09-15 16:12:00,57.6,53.7,29.48,SSW,203,8.1,10.5,87,0.00,,,0.00,WUHU216HW,2013-09-15 15:12:00,
2013-09-15 16:17:00,57.6,53.7,29.47,SSE,158,5.8,10.5,87,0.00,,,0.00,WUHU216HW,2013-09-15 15:17:00,
2013-09-15 16:22:00,57.6,53.7,29.48,South,180,4.3,11.4,87,0.00,,,0.00,WUHU216HW,2013-09-15 15:22:00,
2013-09-15 16:27:00,57.6,53.7,29.48,SSW,203,8.9,11.4,87,0.00,,,0.00,WUHU216HW,2013-09-15 15:27:00,
2013-09-15 16:32:00,57.6,53.7,29.47,NNE,23,2.0,10.1,87,0.00,,,0.00,WUHU216HW,2013-09-15 15:32:00,
2013-09-15 16:37:00,57.8,53.9,29.47,SW,225,6.9,15.4,87,0.00,,,0.00,WUHU216HW,2013-09-15 15:37:00,
2013-09-15 16:42:00,57.8,53.9,29.47,SW,225,2.9,15.4,87,0.00,,,0.00,WUHU216HW,2013-09-15 15:42:00,
2013-09-15 16:47:00,57.8,53.9,29.47,South,180,4.3,11.9,87,0.00,,,0.00,WUHU216HW,2013-09-15 15:47:00,
2013-09-15 16:52:00,57.8,54.3,29.46,SSE,158,6.9,12.1,88,0.00,,,0.00,WUHU216HW,2013-09-15 15:52:00,
2013-09-15 16:57:00,57.8,54.5,29.45,SSW,203,4.0,12.1,89,0.00,,,0.00,WUHU216HW,2013-09-15 15:57:00,
2013-09-15 17:02:00,57.6,54.4,29.45,SE,135,8.5,11.6,89,0.00,,,0.00,WUHU216HW,2013-09-15 16:02:00,
2013-09-15 17:07:00,57.4,54.5,29.45,SSW,203,8.3,9.6,90,0.00,,,0.00,WUHU216HW,2013-09-15 16:07:00,
2013-09-15 17:12:00,57.4,54.8,29.45,South,180,9.4,10.7,91,0.00,,,0.00,WUHU216HW,2013-09-15 16:12:00,
2013-09-15 17:17:00,57.4,54.8,29.45,SSW,203,6.7,10.7,91,0.00,,,0.00,WUHU216HW,2013-09-15 16:17:00,
2013-09-15 17:22:00,57.4,54.8,29.44,NNW,338,4.3,9.4,91,0.00,,,0.00,WUHU216HW,2013-09-15 16:22:00,
2013-09-15 17:27:00,57.4,55.1,29.44,ESE,113,2.9,10.5,92,0.00,,,0.00,WUHU216HW,2013-09-15 16:27:00,
2013-09-15 17:32:00,57.6,55.3,29.44,South,180,4.7,10.5,92,0.00,,,0.00,WUHU216HW,2013-09-15 16:32:00,
2013-09-15 17:37:00,57.6,55.3,29.43,South,180,6.0,10.3,92,0.00,,,0.00,WUHU216HW,2013-09-15 16:37:00,
2013-09-15 17:42:00,57.6,55.3,29.43,SSW,203,2.2,8.5,92,0.00,,,0.00,WUHU216HW,2013-09-15 16:42:00,
2013-09-15 17:47:00,57.6,55.3,29.43,ENE,68,4.7,8.5,92,0.00,,,0.00,WUHU216HW,2013-09-15 16:47:00,
2013-09-15 17:52:00,57.6,55.3,29.42,West,270,2.5,7.6,92,0.00,,,0.00,WUHU216HW,2013-09-15 16:52:00,
2013-09-15 17:57:00,57.6,55.3,29.42,South,180,5.4,8.9,92,0.00,,,0.00,WUHU216HW,2013-09-15 16:57:00,
2013-09-15 18:02:00,57.8,55.4,29.42,SSW,203,2.0,10.7,92,0.00,,,0.00,WUHU216HW,2013-09-15 17:02:00,
2013-09-15 18:07:00,58.0,55.6,29.41,SSW,203,3.4,11.0,92,0.00,,,0.00,WUHU216HW,2013-09-15 17:07:00,
2013-09-15 18:12:00,58.0,56.0,29.41,ESE,113,3.8,11.0,93,0.00,,,0.00,WUHU216HW,2013-09-15 17:12:00,
2013-09-15 18:17:00,58.0,56.0,29.40,West,270,4.7,10.7,93,0.00,,,0.00,WUHU216HW,2013-09-15 17:17:00,
2013-09-15 18:22:00,58.0,56.0,29.40,NNW,338,5.1,15.2,93,0.00,,,0.00,WUHU216HW,2013-09-15 17:22:00,
2013-09-15 18:27:00,58.1,56.2,29.40,South,180,4.9,15.2,93,0.00,,,0.00,WUHU216HW,2013-09-15 17:27:00,
2013-09-15 18:32:00,58.1,56.2,29.41,SW,225,5.8,9.8,93,0.00,,,0.00,WUHU216HW,2013-09-15 17:32:00,
2013-09-15 18:37:00,58.1,56.2,29.41,SSE,158,8.5,9.8,93,0.00,,,0.00,WUHU216HW,2013-09-15 17:37:00,
2013-09-15 18:42:00,58.3,56.4,29.41,South,180,12.8,12.8,93,0.00,,,0.00,WUHU216HW,2013-09-15 17:42:00,
2013-09-15 18:47:00,58.3,56.4,29.40,SE,135,7.8,12.8,93,0.00,,,0.00,WUHU216HW,2013-09-15 17:47:00,
2013-09-15 18:52:00,58.3,56.6,29.40,SW,225,4.0,12.8,94,0.00,,,0.00,WUHU216HW,2013-09-15 17:52:00,
2013-09-15 18:57:00,58.3,56.6,29.40,ENE,68,1.8,8.7,94,0.00,,,0.00,WUHU216HW,2013-09-15 17:57:00,
2013-09-15 19:02:00,58.5,56.8,29.40,WNW,293,1.3,8.7,94,0.00,,,0.00,WUHU216HW,2013-09-15 18:02:00,
2013-09-15 19:07:00,58.5,56.8,29.40,SSW,203,5.8,8.9,94,0.00,,,0.00,WUHU216HW,2013-09-15 18:07:00,
2013-09-15 19:12:00,58.7,57.0,29.40,South,180,4.0,9.8,94,0.00,,,0.00,WUHU216HW,2013-09-15 18:12:00,
2013-09-15 19:17:00,58.7,57.0,29.39,East,90,2.5,9.8,94,0.00,,,0.00,WUHU216HW,2013-09-15 18:17:00,
2013-09-15 19:22:00,58.7,57.0,29.39,South,180,2.0,10.1,94,0.00,,,0.00,WUHU216HW,2013-09-15 18:22:00,
2013-09-15 19:27:00,58.7,57.0,29.39,NNW,338,3.4,10.7,94,0.00,,,0.00,WUHU216HW,2013-09-15 18:27:00,
2013-09-15 19:32:00,58.9,57.2,29.39,SW,225,5.4,10.7,94,0.00,,,0.00,WUHU216HW,2013-09-15 18:32:00,
2013-09-15 19:37:00,59.0,57.3,29.39,SSW,203,6.9,12.8,94,0.00,,,0.00,WUHU216HW,2013-09-15 18:37:00,
2013-09-15 19:42:00,59.0,57.1,29.39,South,180,12.3,12.8,93,0.00,,,0.00,WUHU216HW,2013-09-15 18:42:00,
2013-09-15 19:47:00,59.2,57.5,29.39,SSW,203,5.4,12.3,94,0.00,,,0.00,WUHU216HW,2013-09-15 18:47:00,
2013-09-15 19:52:00,59.2,57.5,29.39,South,180,9.8,12.3,94,0.00,,,0.00,WUHU216HW,2013-09-15 18:52:00,
2013-09-15 19:57:00,59.2,57.5,29.39,WSW,248,1.1,10.5,94,0.00,,,0.00,WUHU216HW,2013-09-15 18:57:00,
2013-09-15 20:02:00,59.4,57.7,29.39,SSW,203,5.6,9.8,94,0.00,,,0.00,WUHU216HW,2013-09-15 19:02:00,
2013-09-15 20:07:00,59.4,57.7,29.39,West,270,1.1,8.3,94,0.00,,,0.00,WUHU216HW,2013-09-15 19:07:00,
2013-09-15 20:12:00,59.4,57.7,29.39,NNW,338,0.4,6.5,94,0.00,,,0.00,WUHU216HW,2013-09-15 19:12:00,
2013-09-15 20:17:00,59.4,57.7,29.39,West,270,1.1,6.5,94,0.00,,,0.00,WUHU216HW,2013-09-15 19:17:00,
2013-09-15 20:18:00,59.4,57.7,29.40,WSW,248,1.1,6.5,94,0.00,,,0.00,WUHU216HW,2013-09-15 19:18:00,
2013-09-15 20:23:00,59.6,57.9,29.41,WSW,248,0.7,5.4,94,0.00,,,0.00,WUHU216HW,2013-09-15 19:23:00,
2013-09-15 20:28:00,59.0,57.1,29.41,West,270,0.9,3.4,93,0.00,,,0.00,WUHU216HW,2013-09-15 19:28:00,
2013-09-15 20:33:00,58.7,56.3,29.41,WSW,248,1.1,3.4,92,0.00,,,0.00,WUHU216HW,2013-09-15 19:33:00,
2013-09-15 20:38:00,58.0,55.1,29.41,West,270,1.3,2.5,90,0.00,,,0.00,WUHU216HW,2013-09-15 19:38:00,
2013-09-15 20:43:00,57.6,54.7,29.41,West,270,1.8,2.5,90,0.00,,,0.00,WUHU216HW,2013-09-15 19:43:00,
2013-09-15 20:48:00,57.4,54.5,29.41,WNW,293,1.1,2.5,90,0.00,,,0.00,WUHU216HW,2013-09-15 19:48:00,
2013-09-15 20:53:00,57.2,54.0,29.41,West,270,0.4,2.0,89,0.00,,,0.00,WUHU216HW,2013-09-15 19:53:00,
2013-09-15 20:58:00,57.1,53.8,29.41,West,270,0.7,2.0,89,0.00,,,0.00,WUHU216HW,2013-09-15 19:58:00,
2013-09-15 21:03:00,56.9,54.0,29.41,WNW,293,1.1,1.8,90,0.00,,,0.00,WUHU216HW,2013-09-15 20:03:00,
2013-09-15 21:08:00,56.7,53.5,29.42,WSW,248,0.4,2.0,89,0.00,,,0.00,WUHU216HW,2013-09-15 20:08:00,
2013-09-15 21:13:00,56.5,53.3,29.41,West,270,0.4,2.0,89,0.00,,,0.00,WUHU216HW,2013-09-15 20:13:00,
2013-09-15 21:18:00,56.5,53.3,29.42,West,270,0.2,1.8,89,0.00,,,0.00,WUHU216HW,2013-09-15 20:18:00,
2013-09-15 21:23:00,56.3,53.1,29.42,SSW,203,0.7,1.6,89,0.00,,,0.00,WUHU216HW,2013-09-15 20:23:00,
2013-09-15 21:28:00,56.2,53.3,29.42,West,270,2.9,2.9,90,0.00,,,0.00,WUHU216HW,2013-09-15 20:28:00,
2013-09-15 21:33:00,56.2,52.9,29.42,West,270,0.4,2.9,89,0.00,,,0.00,WUHU216HW,2013-09-15 20:33:00,
2013-09-15 21:38:00,56.2,52.9,29.42,WSW,248,0.9,2.9,89,0.00,,,0.00,WUHU216HW,2013-09-15 20:38:00,
2013-09-15 21:43:00,56.2,52.9,29.42,West,270,0.2,2.0,89,0.00,,,0.00,WUHU216HW,2013-09-15 20:43:00,
2013-09-15 21:48:00,56.2,52.9,29.42,West,270,0.4,2.0,89,0.00,,,0.00,WUHU216HW,2013-09-15 20:48:00,
2013-09-15 21:53:00,56.0,52.7,29.42,West,270,0.4,1.1,89,0.00,,,0.00,WUHU216HW,2013-09-15 20:53:00,
2013-09-15 21:58:00,56.0,53.1,29.42,West,270,0.4,1.1,90,0.00,,,0.00,WUHU216HW,2013-09-15 20:58:00,
2013-09-15 22:03:00,55.8,52.9,29.42,West,270,0.0,0.4,90,0.00,,,0.00,WUHU216HW,2013-09-15 21:03:00,
2013-09-15 22:08:00,55.8,52.9,29.42,West,270,0.2,0.4,90,0.00,,,0.00,WUHU216HW,2013-09-15 21:08:00,
2013-09-15 22:13:00,55.6,53.0,29.43,West,270,0.0,0.7,91,0.00,,,0.00,WUHU216HW,2013-09-15 21:13:00,
2013-09-15 22:18:00,55.6,53.0,29.42,SW,225,0.2,0.7,91,0.00,,,0.00,WUHU216HW,2013-09-15 21:18:00,
2013-09-15 22:23:00,55.6,53.0,29.43,SW,225,0.0,0.4,91,0.00,,,0.00,WUHU216HW,2013-09-15 21:23:00,
2013-09-15 22:28:00,55.6,53.3,29.43,SW,225,0.0,0.7,92,0.00,,,0.00,WUHU216HW,2013-09-15 21:28:00,
2013-09-15 22:33:00,55.6,53.3,29.43,SW,225,0.4,0.7,92,0.00,,,0.00,WUHU216HW,2013-09-15 21:33:00,
2013-09-15 22:38:00,55.6,53.3,29.43,SW,225,0.2,0.4,92,0.00,,,0.00,WUHU216HW,2013-09-15 21:38:00,
2013-09-15 22:43:00,55.6,53.3,29.43,SW,225,0.0,0.4,92,0.00,,,0.00,WUHU216HW,2013-09-15 21:43:00,
2013-09-15 22:48:00,55.4,53.1,29.43,WSW,248,0.0,1.1,92,0.00,,,0.00,WUHU216HW,2013-09-15 21:48:00,
2013-09-15 22:53:00,55.4,52.8,29.43,WSW,248,1.1,1.1,91,0.00,,,0.00,WUHU216HW,2013-09-15 21:53:00,
2013-09-15 22:58:00,55.3,52.0,29.43,West,270,1.1,1.8,89,0.00,,,0.00,WUHU216HW,2013-09-15 21:58:00,
2013-09-15 23:03:00,55.3,51.4,29.44,West,270,1.1,2.2,87,0.00,,,0.00,WUHU216HW,2013-09-15 22:03:00,
2013-09-15 23:08:00,55.1,50.6,29.44,WSW,248,1.6,2.7,85,0.00,,,0.00,WUHU216HW,2013-09-15 22:08:00,
2013-09-15 23:13:00,55.1,50.0,29.44,SW,225,0.7,4.0,83,0.00,,,0.00,WUHU216HW,2013-09-15 22:13:00,
2013-09-15 23:18:00,55.1,49.7,29.44,SW,225,3.4,4.0,82,0.00,,,0.00,WUHU216HW,2013-09-15 22:18:00,
2013-09-15 23:23:00,55.3,49.5,29.45,WNW,293,1.8,3.4,81,0.00,,,0.00,WUHU216HW,2013-09-15 22:23:00,
2013-09-15 23:28:00,55.1,49.3,29.45,West,270,0.4,2.9,81,0.00,,,0.00,WUHU216HW,2013-09-15 22:28:00,
2013-09-15 23:33:00,54.9,49.1,29.45,WNW,293,1.1,2.9,81,0.00,,,0.00,WUHU216HW,2013-09-15 22:33:00,
2013-09-15 23:38:00,54.5,48.5,29.45,West,270,0.0,1.8,80,0.00,,,0.00,WUHU216HW,2013-09-15 22:38:00,
2013-09-15 23:43:00,54.4,49.0,29.45,West,270,1.1,1.8,82,0.00,,,0.00,WUHU216HW,2013-09-15 22:43:00,
2013-09-15 23:48:00,54.4,49.0,29.45,WSW,248,1.6,2.5,82,0.00,,,0.00,WUHU216HW,2013-09-15 22:48:00,
2013-09-15 23:53:00,54.2,48.2,29.45,West,270,1.3,2.5,80,0.00,,,0.00,WUHU216HW,2013-09-15 22:53:00,
2013-09-15 23:58:00,54.2,47.8,29.45,WNW,293,1.8,2.7,79,0.00,,,0.00,WUHU216HW,2013-09-15 22:58:00,